Fremont, NE

12:50 PM CDT on April 29, 2017 (GMT -0500)
Fremont Municipal

Weather History for KFET - June, 2013

Change the Weather History Date:

Saturday, June 1, 2013

  Actual Average Record
Temperature  
Mean Temperature 58 °F -  
Max Temperature 63 °F 79 °F 93 °F (2002)
Min Temperature 53 °F 53 °F 40 °F (1956)
Degree Days  
Heating Degree Days 7    
Growing Degree Days 8 (Base 50)    
Moisture  
Dew Point 51 °F    
Average Humidity 77    
Maximum Humidity 93    
Minimum Humidity 65    
Precipitation  
Precipitation 0.00 in - - ()
Sea Level Pressure  
Sea Level Pressure 29.84 in    
Wind  
Wind Speed 17 mph (WNW)    
Max Wind Speed 29 mph    
Max Gust Speed 38 mph    
Visibility 10 miles    
Events Rain    
Averages and records for this station are not official NWS values.
T = Trace of Precipitation, MM = Missing Value Source: NWS Daily Summary

Daily Weather History Graph

Daily Weather History Graph

Search for Another Location

Airport or City:

Trip Planner

Search our weather history database for the weather conditions in past years. The results will help you decide how hot, cold, wet, or windy it might be!

Date:

Astronomy

Jun. 01, 2013 Rise Set
Actual Time 5:54 AM CDT 8:53 PM CDT
Civil Twilight 5:21 AM CDT 9:26 PM CDT
Nautical Twilight 4:39 AM CDT 10:09 PM CDT
Astronomical Twilight 3:50 AM CDT 10:58 PM CDT
Moon 1:55 AM CDT (6/1) 2:19 PM CDT (6/1)
Length of Visible Light 16h 05m
Length of Day
14h 58m
Last Quarter, 40% of the Moon is Illuminated
Jun 1
Last Quarter
Jun 8
New
Jun 16
First Quarter
Jun 23
Full
Jun 29
Last Quarter

Hourly Weather History & Observations

Time (CDT) Temp. Dew Point Humidity Pressure Visibility Wind Dir Wind Speed Gust Speed Precip Events Conditions
12:15 AM 60.8 °F 49.1 °F 65% 29.72 in 10.0 mi SW 8.1 mph - N/A   Clear
12:35 AM 59.9 °F 49.1 °F 67% 29.72 in 10.0 mi SW 9.2 mph - N/A   Clear
12:55 AM 60.1 °F 48.9 °F 67% 29.72 in 10.0 mi SW 13.8 mph 20.7 mph N/A   Clear
1:15 AM 59.9 °F 49.1 °F 67% 29.72 in 10.0 mi SW 15.0 mph 20.7 mph N/A   Clear
1:35 AM 60.3 °F 49.5 °F 68% 29.71 in 10.0 mi WSW 16.1 mph 19.6 mph N/A   Mostly Cloudy
1:55 AM 60.8 °F 49.3 °F 66% 29.71 in 10.0 mi WSW 18.4 mph 21.9 mph N/A   Scattered Clouds
2:15 AM 60.6 °F 49.3 °F 66% 29.69 in 10.0 mi West 15.0 mph 20.7 mph N/A   Scattered Clouds
2:35 AM 59.9 °F 50.0 °F 70% 29.68 in 10.0 mi West 13.8 mph 20.7 mph N/A   Clear
2:55 AM 58.8 °F 50.0 °F 73% 29.68 in 10.0 mi West 15.0 mph 21.9 mph N/A   Clear
3:15 AM 57.6 °F 50.2 °F 76% 29.68 in 10.0 mi West 16.1 mph - N/A   Clear
3:35 AM 58.3 °F 50.4 °F 75% 29.68 in 10.0 mi West 18.4 mph 27.6 mph N/A   Mostly Cloudy
3:55 AM 58.5 °F 50.4 °F 74% 29.68 in 10.0 mi West 17.3 mph 26.5 mph N/A   Overcast
4:15 AM 58.5 °F 50.9 °F 76% 29.69 in 10.0 mi West 17.3 mph 27.6 mph N/A   Overcast
4:35 AM 58.1 °F 51.1 °F 77% 29.68 in 10.0 mi West 17.3 mph 23.0 mph N/A   Overcast
4:55 AM 58.1 °F 51.1 °F 77% 29.69 in 10.0 mi West 13.8 mph 20.7 mph N/A   Overcast
5:15 AM 57.6 °F 51.1 °F 79% 29.69 in 10.0 mi West 17.3 mph 20.7 mph N/A   Overcast
5:35 AM 57.6 °F 51.4 °F 80% 29.69 in 10.0 mi WSW 15.0 mph 21.9 mph N/A   Overcast
5:55 AM 57.6 °F 51.4 °F 80% 29.70 in 10.0 mi West 15.0 mph 24.2 mph N/A   Overcast
6:15 AM 57.6 °F 51.8 °F 81% 29.70 in 10.0 mi West 13.8 mph 18.4 mph N/A   Overcast
6:35 AM 57.9 °F 52.0 °F 81% 29.70 in 10.0 mi West 15.0 mph 23.0 mph N/A   Overcast
6:55 AM 57.9 °F 52.5 °F 82% 29.70 in 10.0 mi West 17.3 mph 23.0 mph N/A   Overcast
7:15 AM 58.1 °F 53.1 °F 83% 29.71 in 10.0 mi West 15.0 mph - N/A   Overcast
7:35 AM 58.1 °F 54.0 °F 86% 29.72 in 10.0 mi West 15.0 mph 21.9 mph N/A   Overcast
7:55 AM 58.3 °F 54.9 °F 88% 29.73 in 10.0 mi West 17.3 mph - N/A   Overcast
8:15 AM 59.5 °F 55.8 °F 87% 29.74 in 10.0 mi West 15.0 mph 20.7 mph N/A   Overcast
8:35 AM 59.5 °F 55.4 °F 86% 29.74 in 7.0 mi WNW 19.6 mph 28.8 mph N/A   Overcast
8:55 AM 60.1 °F 54.5 °F 82% 29.76 in 10.0 mi WNW 24.2 mph 28.8 mph N/A   Overcast
9:15 AM 61.2 °F 53.6 °F 76% 29.76 in 10.0 mi NW 26.5 mph 31.1 mph N/A   Overcast
9:35 AM 60.8 °F 54.1 °F 79% 29.77 in 10.0 mi WNW 20.7 mph 26.5 mph N/A   Overcast
9:55 AM 57.7 °F 55.8 °F 93% 29.77 in 5.0 mi WNW 21.9 mph 28.8 mph N/A Rain Light Rain
10:15 AM 57.2 °F 54.5 °F 91% 29.78 in 5.0 mi WNW 27.6 mph 33.4 mph N/A   Overcast
10:35 AM 58.3 °F 53.2 °F 83% 29.78 in 10.0 mi WNW 24.2 mph 29.9 mph N/A   Overcast
10:55 AM 58.3 °F 52.3 °F 81% 29.80 in 10.0 mi NW 25.3 mph 35.7 mph N/A   Overcast
11:15 AM 58.6 °F 52.2 °F 79% 29.81 in 10.0 mi WNW 25.3 mph 34.5 mph N/A   Overcast
11:35 AM 59.0 °F 52.3 °F 79% 29.81 in 10.0 mi WNW 19.6 mph 31.1 mph N/A   Overcast
11:55 AM 58.8 °F 51.8 °F 77% 29.82 in 10.0 mi NW 27.6 mph 34.5 mph N/A   Overcast
12:15 PM 59.2 °F 51.8 °F 77% 29.83 in 10.0 mi NW 26.5 mph 33.4 mph N/A   Overcast
12:35 PM 59.5 °F 52.3 °F 77% 29.84 in 10.0 mi WNW 18.4 mph 29.9 mph N/A   Overcast
12:55 PM 58.1 °F 52.9 °F 83% 29.85 in 7.0 mi NW 21.9 mph 29.9 mph N/A   Overcast
1:15 PM 58.5 °F 52.5 °F 81% 29.86 in 10.0 mi WNW 25.3 mph 38.0 mph N/A   Overcast
1:35 PM 58.3 °F 54.0 °F 86% 29.86 in 10.0 mi WNW 18.4 mph 29.9 mph N/A   Overcast
1:55 PM 58.5 °F 53.8 °F 84% 29.87 in 10.0 mi NW 24.2 mph 29.9 mph N/A   Overcast
2:15 PM 60.1 °F 53.1 °F 78% 29.87 in 10.0 mi NW 21.9 mph 31.1 mph N/A   Overcast
2:35 PM 61.3 °F 52.9 °F 74% 29.88 in 10.0 mi NW 25.3 mph 34.5 mph N/A   Overcast
2:55 PM 62.4 °F 52.7 °F 70% 29.88 in 10.0 mi NW 23.0 mph 31.1 mph N/A   Overcast
3:15 PM 62.6 °F 52.2 °F 69% 29.89 in 10.0 mi NW 28.8 mph 35.7 mph N/A   Overcast
3:35 PM 63.0 °F 52.7 °F 69% 29.90 in 10.0 mi NW 24.2 mph 31.1 mph N/A   Overcast
3:55 PM 62.8 °F 52.9 °F 70% 29.91 in 10.0 mi NW 23.0 mph 33.4 mph N/A   Overcast
4:15 PM 61.7 °F 52.7 °F 72% 29.91 in 10.0 mi NW 21.9 mph 29.9 mph N/A   Overcast
4:35 PM 61.5 °F 52.2 °F 71% 29.92 in 10.0 mi NW 24.2 mph 31.1 mph N/A   Overcast
4:55 PM 60.1 °F 51.3 °F 73% 29.93 in 10.0 mi NW 25.3 mph 32.2 mph N/A   Overcast
5:15 PM 59.9 °F 50.5 °F 71% 29.94 in 10.0 mi NW 19.6 mph 28.8 mph N/A   Overcast
5:35 PM 59.4 °F 50.9 °F 74% 29.94 in 10.0 mi NW 25.3 mph 31.1 mph N/A   Overcast
5:55 PM 59.2 °F 50.7 °F 74% 29.95 in 10.0 mi NW 19.6 mph 27.6 mph N/A   Overcast
6:15 PM 59.0 °F 50.5 °F 73% 29.96 in 10.0 mi NW 16.1 mph 19.6 mph N/A   Overcast
6:35 PM 59.0 °F 50.4 °F 73% 29.96 in 10.0 mi NW 19.6 mph 29.9 mph N/A   Overcast
6:55 PM 58.6 °F 50.0 °F 73% 29.97 in 10.0 mi NW 21.9 mph 27.6 mph N/A   Overcast
7:15 PM 58.1 °F 50.0 °F 74% 29.97 in 10.0 mi NNW 15.0 mph 26.5 mph N/A   Overcast
7:35 PM 57.6 °F 50.0 °F 76% 29.99 in 10.0 mi NW 12.7 mph 25.3 mph N/A   Overcast
7:55 PM 57.0 °F 49.1 °F 75% 30.00 in 10.0 mi NNW 16.1 mph 23.0 mph N/A   Overcast
8:15 PM 56.7 °F 49.1 °F 76% 30.01 in 10.0 mi NNW 17.3 mph 20.7 mph N/A   Overcast
8:35 PM 56.5 °F 49.1 °F 76% 30.01 in 10.0 mi NW 15.0 mph 18.4 mph N/A   Overcast
8:55 PM 56.3 °F 49.5 °F 78% 30.02 in 10.0 mi NW 15.0 mph - N/A   Overcast
9:15 PM 56.1 °F 49.1 °F 77% 30.02 in 10.0 mi NW 19.6 mph 27.6 mph N/A   Overcast
9:35 PM 55.6 °F 48.7 °F 78% 30.03 in 10.0 mi NW 18.4 mph 25.3 mph N/A   Overcast
9:55 PM 55.4 °F 48.9 °F 79% 30.04 in 10.0 mi NW 15.0 mph 23.0 mph N/A   Overcast
10:15 PM 55.2 °F 48.7 °F 79% 30.04 in 10.0 mi NW 13.8 mph 21.9 mph N/A   Overcast
10:35 PM 54.9 °F 49.1 °F 81% 30.04 in 10.0 mi NNW 15.0 mph - N/A   Overcast
10:55 PM 54.5 °F 49.3 °F 83% 30.05 in 10.0 mi NW 11.5 mph 21.9 mph N/A   Overcast
11:15 PM 54.1 °F 49.6 °F 85% 30.06 in 10.0 mi NW 15.0 mph 19.6 mph N/A   Overcast
11:35 PM 53.8 °F 49.3 °F 85% 30.05 in 10.0 mi NNW 18.4 mph 25.3 mph N/A   Overcast
11:55 PM 53.1 °F 49.3 °F 87% 30.06 in 10.0 mi NNW 16.1 mph - N/A   Mostly Cloudy